When you browse on this site, cookies collect data to enhance your experience and personalize the content and advertising you see.
Visit our Privacy Policy to learn more. By continuing to use the site, you agree to this use of cookies and data.
  • In Latvia
  • List of Countries
  • For 7 days
  • Water Temperature
  • Weather Map
  • Weather Widgets
  • user-avatar
    Login

    Hourly Weather Canillo

    Today, 21 November, Thursday

    Time Temperature Precipitation Wind Pressure Humidity
    00:00 -6°C° 0 mm 2 mps 607 mmHg 84%
    01:00 -6°C° 0 mm 2 mps 607 mmHg 83%
    02:00 -5°C° 0 mm 2 mps 607 mmHg 82%
    03:00 -5°C° 0 mm 2 mps 607 mmHg 81%
    04:00 -3°C° 0 mm 1 mps 607 mmHg 82%
    05:00 -3°C° 0 mm 1 mps 607 mmHg 83%
    06:00 -3°C° 0 mm 1 mps 607 mmHg 83%
    07:00 -2°C° 0 mm 1 mps 608 mmHg 80%
    08:00 0°C° 0 mm 1 mps 608 mmHg 78%
    09:00 +1°C° 0 mm 1 mps 609 mmHg 76%
    10:00 +2°C° 0 mm 1 mps 609 mmHg 74%
    11:00 +3°C° 0 mm 1 mps 609 mmHg 73%
    12:00 +3°C° 0 mm 1 mps 609 mmHg 72%
    13:00 +3°C° 0 mm 1 mps 609 mmHg 74%
    14:00 +2°C° 0 mm 1 mps 609 mmHg 76%
    15:00 +2°C° 0 mm 1 mps 609 mmHg 78%
    16:00 +1°C° 0 mm 1 mps 608 mmHg 83%
    17:00 -1°C° 0 mm 1 mps 608 mmHg 87%
    18:00 -2°C° 0 mm 1 mps 607 mmHg 92%
    19:00 -2°C° 0 mm 1 mps 607 mmHg 91%
    20:00 -4°C° 0 mm 2 mps 608 mmHg 91%
    21:00 -4°C° 0 mm 2 mps 608 mmHg 91%
    22:00 -4°C° 0 mm 2 mps 608 mmHg 91%
    23:00 -4°C° 0 mm 2 mps 608 mmHg 91%

    Tomorrow, 22 November, Friday

    Time Temperature Precipitation Wind Pressure Humidity
    00:00 -4°C° 0 mm 2 mps 608 mmHg 90%
    01:00 -4°C° 0 mm 2 mps 607 mmHg 89%
    02:00 -4°C° 0 mm 2 mps 607 mmHg 88%
    03:00 -5°C° 0 mm 2 mps 606 mmHg 86%
    04:00 -4°C° 0 mm 2 mps 606 mmHg 85%
    05:00 -4°C° 0 mm 2 mps 606 mmHg 85%
    06:00 -4°C° 0 mm 2 mps 606 mmHg 84%
    07:00 -3°C° 0 mm 2 mps 606 mmHg 85%
    08:00 -2°C° 0 mm 3 mps 606 mmHg 85%
    09:00 -1°C° 0 mm 3 mps 607 mmHg 86%
    10:00 0°C° 0.3 mm 3 mps 606 mmHg 87%
    11:00 -1°C° 0.3 mm 4 mps 606 mmHg 88%
    12:00 -1°C° 0.3 mm 4 mps 605 mmHg 89%
    13:00 -1°C° 0.5 mm 4 mps 604 mmHg 91%
    14:00 -1°C° 0.5 mm 4 mps 604 mmHg 93%
    15:00 -1°C° 0.5 mm 4 mps 603 mmHg 94%
    16:00 -1°C° 1 mm 4 mps 602 mmHg 95%
    17:00 -1°C° 1 mm 4 mps 602 mmHg 96%
    18:00 -1°C° 1 mm 4 mps 601 mmHg 96%
    19:00 0°C° 3.4 mm 4 mps 601 mmHg 96%
    20:00 0°C° 3.4 mm 4 mps 600 mmHg 96%
    21:00 +1°C° 3.4 mm 3 mps 600 mmHg 96%
    22:00 +1°C° 3.2 mm 3 mps 599 mmHg 96%
    23:00 +1°C° 3.2 mm 3 mps 599 mmHg 97%

    Day after tomorrow, 23 November, Saturday

    Time Temperature Precipitation Wind Pressure Humidity
    00:00 +1°C° 3.2 mm 3 mps 598 mmHg 97%
    01:00 +1°C° 0.4 mm 2 mps 598 mmHg 97%
    02:00 +1°C° 0.4 mm 2 mps 598 mmHg 96%
    03:00 +1°C° 0.4 mm 2 mps 598 mmHg 96%
    04:00 -1°C° 0 mm 2 mps 598 mmHg 96%
    05:00 -1°C° 0 mm 2 mps 598 mmHg 96%
    06:00 -1°C° 0 mm 2 mps 598 mmHg 96%
    07:00 +1°C° 0 mm 1 mps 599 mmHg 94%
    08:00 +1°C° 0 mm 1 mps 599 mmHg 92%
    09:00 +2°C° 0 mm 1 mps 600 mmHg 91%
    10:00 +2°C° 0.3 mm 1 mps 601 mmHg 91%
    11:00 +3°C° 0.3 mm 1 mps 601 mmHg 91%
    12:00 +3°C° 0.3 mm 1 mps 602 mmHg 91%
    13:00 +2°C° 0.8 mm 2 mps 602 mmHg 91%
    14:00 +1°C° 0.8 mm 2 mps 602 mmHg 92%
    15:00 0°C° 0.8 mm 3 mps 603 mmHg 93%
    16:00 -2°C° 0.4 mm 3 mps 603 mmHg 93%
    17:00 -4°C° 0.4 mm 3 mps 604 mmHg 93%
    18:00 -5°C° 0.4 mm 3 mps 604 mmHg 93%
    19:00 -5°C° 0.1 mm 3 mps 605 mmHg 94%
    20:00 -4°C° 0.1 mm 3 mps 606 mmHg 94%
    21:00 -4°C° 0.1 mm 3 mps 607 mmHg 94%
    22:00 -4°C° 0.1 mm 3 mps 607 mmHg 94%
    23:00 -4°C° 0.1 mm 3 mps 608 mmHg 94%

    24 November, Sunday

    Time Temperature Precipitation Wind Pressure Humidity
    00:00 -4°C° 0.1 mm 3 mps 608 mmHg 93%
    01:00 -4°C° 0.1 mm 3 mps 608 mmHg 93%
    02:00 -5°C° 0.1 mm 3 mps 609 mmHg 93%
    03:00 -5°C° 0.1 mm 3 mps 609 mmHg 93%
    04:00 -5°C° 0.2 mm 3 mps 609 mmHg 93%
    05:00 -4°C° 0.2 mm 3 mps 610 mmHg 93%
    06:00 -4°C° 0.2 mm 3 mps 611 mmHg 93%
    07:00 -4°C° 0 mm 3 mps 611 mmHg 91%
    08:00 -2°C° 0 mm 3 mps 612 mmHg 89%
    09:00 -1°C° 0 mm 3 mps 613 mmHg 88%
    10:00 -1°C° 0 mm 2 mps 613 mmHg 85%
    11:00 +1°C° 0 mm 2 mps 614 mmHg 82%
    12:00 +2°C° 0 mm 2 mps 614 mmHg 80%
    13:00 +2°C° 0 mm 2 mps 614 mmHg 81%
    14:00 +2°C° 0 mm 2 mps 614 mmHg 82%
    15:00 +1°C° 0 mm 2 mps 614 mmHg 84%
    16:00 -1°C° 0 mm 2 mps 614 mmHg 85%
    17:00 -3°C° 0 mm 2 mps 613 mmHg 87%
    18:00 -4°C° 0 mm 2 mps 613 mmHg 89%
    19:00 -4°C° 0 mm 2 mps 613 mmHg 82%
    20:00 -4°C° 0 mm 2 mps 613 mmHg 76%
    21:00 -2°C° 0 mm 1 mps 613 mmHg 69%
    22:00 -2°C° 0 mm 1 mps 613 mmHg 66%
    23:00 -1°C° 0 mm 1 mps 614 mmHg 63%

    25 November, Monday

    Time Temperature Precipitation Wind Pressure Humidity
    00:00 -1°C° 0 mm 1 mps 614 mmHg 60%
    01:00 -1°C° 0 mm 1 mps 614 mmHg 59%
    02:00 0°C° 0 mm 1 mps 614 mmHg 57%
    03:00 +1°C° 0 mm 1 mps 614 mmHg 56%
    04:00 -1°C° 0 mm 2 mps 614 mmHg 58%
    05:00 -2°C° 0 mm 2 mps 614 mmHg 60%
    06:00 -2°C° 0 mm 2 mps 613 mmHg 62%
    07:00 +1°C° 0 mm 2 mps 614 mmHg 67%
    08:00 +2°C° 0 mm 2 mps 615 mmHg 72%
    09:00 +4°C° 0 mm 2 mps 616 mmHg 77%
    10:00 +6°C° 0 mm 1 mps 617 mmHg 78%
    11:00 +7°C° 0 mm 1 mps 617 mmHg 79%
    12:00 +8°C° 0 mm 1 mps 617 mmHg 80%
    13:00 +8°C° 0 mm 1 mps 617 mmHg 83%
    14:00 +7°C° 0 mm 1 mps 617 mmHg 86%
    15:00 +6°C° 0 mm 1 mps 616 mmHg 90%
    16:00 +5°C° 0 mm 1 mps 616 mmHg 91%
    17:00 +4°C° 0 mm 1 mps 616 mmHg 93%
    18:00 +4°C° 0 mm 1 mps 616 mmHg 94%
    19:00 +3°C° 0 mm 1 mps 616 mmHg 93%
    20:00 +3°C° 0 mm 1 mps 616 mmHg 91%
    21:00 +2°C° 0 mm 1 mps 616 mmHg 90%
    22:00 +2°C° 0 mm 1 mps 616 mmHg 88%
    23:00 +2°C° 0 mm 1 mps 616 mmHg 86%

    26 November, Tuesday

    Time Temperature Precipitation Wind Pressure Humidity
    00:00 +2°C° 0 mm 1 mps 616 mmHg 84%
    01:00 +1°C° 0 mm 1 mps 616 mmHg 81%
    02:00 +1°C° 0 mm 1 mps 615 mmHg 79%
    03:00 +1°C° 0 mm 1 mps 615 mmHg 77%
    04:00 +1°C° 0 mm 1 mps 615 mmHg 78%
    05:00 0°C° 0 mm 1 mps 615 mmHg 78%
    06:00 0°C° 0 mm 1 mps 615 mmHg 79%
    07:00 +2°C° 0 mm 1 mps 616 mmHg 79%
    08:00 +3°C° 0 mm 1 mps 617 mmHg 79%
    09:00 +4°C° 0 mm 0 mps 617 mmHg 78%
    10:00 +5°C° 0 mm 1 mps 617 mmHg 79%
    11:00 +6°C° 0 mm 1 mps 617 mmHg 79%
    12:00 +7°C° 0 mm 1 mps 618 mmHg 79%
    13:00 +7°C° 0 mm 1 mps 617 mmHg 81%
    14:00 +6°C° 0 mm 1 mps 617 mmHg 84%
    15:00 +6°C° 0 mm 1 mps 616 mmHg 87%
    16:00 +5°C° 0 mm 1 mps 616 mmHg 87%
    17:00 +4°C° 0 mm 1 mps 615 mmHg 86%
    18:00 +1°C° 0 mm 2 mps 615 mmHg 86%
    19:00 +2°C° 0 mm 2 mps 615 mmHg 80%
    20:00 +2°C° 0 mm 2 mps 615 mmHg 75%
    21:00 +3°C° 0 mm 2 mps 616 mmHg 69%
    22:00 +3°C° 0 mm 2 mps 615 mmHg 71%
    23:00 +4°C° 0 mm 1 mps 615 mmHg 73%
    Show more